Weather History for KCSM - October, 2010

Change the Weather History Date:

Tuesday, October 5, 2010

  Actual Average Record
Temperature  
Mean Temperature 65 °F -  
Max Temperature 79 °F 74 °F 91 °F (2007)
Min Temperature 52 °F 53 °F 39 °F (2001)
Growing Degree Days 15 (Base 50)    
Moisture  
Dew Point 38 °F    
Average Humidity 39    
Maximum Humidity 59    
Minimum Humidity 23    
Precipitation  
Precipitation 0.00 in - - ()
Sea Level Pressure  
Sea Level Pressure 30.27 in    
Wind  
Wind Speed 14 mph (SSE)    
Max Wind Speed 24 mph    
Max Gust Speed 25 mph    
Visibility 10 miles    
Events      
Averages and records for this station are not official NWS values.
T = Trace of Precipitation, MM = Missing Value Source: NWS Daily Summary

Daily Weather History Graph

Daily Weather History Graph

Search for Another Location

Airport or City:

Trip Planner

Search our weather history database for the weather conditions in past years. The results will help you decide how hot, cold, wet, or windy it might be!

Date:

Astronomy

Oct. 05, 2010 Rise Set
Actual Time 7:34 AM CDT 7:14 PM CDT
Civil Twilight 7:09 AM CDT 7:40 PM CDT
Nautical Twilight 6:39 AM CDT 8:09 PM CDT
Astronomical Twilight 6:10 AM CDT 8:39 PM CDT
Moon 5:03 AM CDT (10/5) 5:43 PM CDT (10/5)
Length of Visible Light 12h 30m
Length of Day
11h 40m
Waning Crescent, 6% of the Moon is Illuminated
Oct 5
Waning Crescent
Oct 7
New
Oct 14
First Quarter
Oct 22
Full
Oct 30
Last Quarter

Hourly Weather History & Observations

Time (CDT) Temp. Dew Point Humidity Pressure Visibility Wind Dir Wind Speed Gust Speed Precip Events Conditions
12:53 AM 57.0 °F 37.0 °F 47% 30.25 in 10.0 mi SSE 12.7 mph - N/A   Clear
1:53 AM 55.0 °F 37.0 °F 51% 30.26 in 10.0 mi SSE 10.4 mph - N/A   Clear
2:53 AM 55.0 °F 37.0 °F 51% 30.25 in 10.0 mi SSE 12.7 mph - N/A   Clear
3:53 AM 53.1 °F 37.0 °F 55% 30.26 in 10.0 mi South 9.2 mph - N/A   Clear
4:53 AM 52.0 °F 37.0 °F 57% 30.26 in 10.0 mi South 10.4 mph - N/A   Clear
5:53 AM 54.0 °F 37.9 °F 55% 30.27 in 10.0 mi South 13.8 mph - N/A   Scattered Clouds
7:53 AM 53.1 °F 39.0 °F 59% 30.30 in 10.0 mi South 15.0 mph - N/A   Scattered Clouds
8:53 AM 57.9 °F 39.0 °F 49% 30.32 in 10.0 mi South 19.6 mph - N/A   Mostly Cloudy
9:53 AM 61.0 °F 37.9 °F 42% 30.32 in 10.0 mi South 18.4 mph - N/A   Scattered Clouds
10:53 AM 66.0 °F 37.9 °F 36% 30.32 in 10.0 mi South 24.2 mph - N/A   Clear
11:53 AM 70.0 °F 37.0 °F 30% 30.31 in 10.0 mi South 20.7 mph - N/A   Partly Cloudy
12:53 PM 73.0 °F 37.9 °F 28% 30.30 in 10.0 mi South 17.3 mph - N/A   Partly Cloudy
1:53 PM 75.0 °F 37.9 °F 26% 30.28 in 10.0 mi South 19.6 mph - N/A   Clear
2:53 PM 77.0 °F 37.9 °F 24% 30.25 in 10.0 mi South 16.1 mph 25.3 mph N/A   Clear
3:53 PM 78.1 °F 37.0 °F 23% 30.24 in 10.0 mi South 17.3 mph - N/A   Clear
4:53 PM 78.1 °F 37.0 °F 23% 30.23 in 10.0 mi SSE 18.4 mph 25.3 mph N/A   Clear
5:53 PM 75.9 °F 37.0 °F 24% 30.22 in 10.0 mi SSE 18.4 mph - N/A   Clear
6:53 PM 73.0 °F 37.0 °F 27% 30.23 in 10.0 mi SSE 17.3 mph - N/A   Clear
7:53 PM 70.0 °F 37.0 °F 30% 30.24 in 10.0 mi SSE 13.8 mph - N/A   Clear
8:53 PM 66.9 °F 37.0 °F 33% 30.25 in 10.0 mi SSE 12.7 mph - N/A   Clear
9:53 PM 64.0 °F 37.9 °F 38% 30.26 in 10.0 mi SSE 13.8 mph - N/A   Clear
10:53 PM 62.1 °F 39.0 °F 43% 30.27 in 10.0 mi SSE 12.7 mph - N/A   Clear
11:53 PM 60.1 °F 39.0 °F 46% 30.28 in 10.0 mi SSE 10.4 mph - N/A   Clear